Date,TemperatureHighF,TemperatureAvgF,TemperatureLowF,DewpointHighF,DewpointAvgF,DewpointLowF,HumidityHigh,HumidityAvg,HumidityLow,PressureMaxIn,PressureMinIn,WindSpeedMaxMPH,WindSpeedAvgMPH,GustSpeedMaxMPH,PrecipitationSumIn
2013-1-1,15.4,-5.0,-19.5,1.0,-12.6,-24.0,85,71,48,31.00,30.41,8,1,12,0.00
2013-1-2,17.7,-7.0,-23.1,-1.0,-14.1,-28.0,84,72,41,31.11,30.82,4,0,6,0.00
2013-1-3,11.1,-11.5,-25.9,-7.0,-18.8,-31.0,80,71,44,31.29,31.09,5,0,5,0.00
2013-1-4,21.6,-3.5,-20.3,0.0,-11.7,-26.0,83,69,38,31.33,30.92,5,0,5,0.00
2013-1-5,31.9,5.0,-12.5,6.0,-5.0,-18.0,82,65,31,31.09,30.85,3,1,5,0.01
2013-1-6,24.3,1.8,-13.2,6.0,-6.4,-18.0,83,70,38,31.09,30.76,4,0,5,0.00
2013-1-7,26.5,2.6,-9.9,6.0,-5.4,-15.0,84,71,40,30.88,30.60,3,0,5,0.00
2013-1-8,29.1,5.8,-10.9,10.0,-3.7,-17.0,85,67,34,31.00,30.71,4,1,12,0.00
2013-1-9,28.7,6.4,-8.9,10.0,-0.7,-14.0,88,74,43,31.13,30.81,4,1,5,0.00
2013-1-10,35.3,11.7,-8.4,21.0,4.6,-13.0,90,75,38,30.82,30.01,11,2,22,0.00
2013-1-11,23.4,8.5,-24.0,20.0,0.1,-29.0,89,70,45,30.23,29.64,19,4,26,0.00
2013-1-12,-3.0,-17.2,-34.2,-11.0,-23.6,-40.0,82,72,52,30.92,30.25,4,0,5,0.00
2013-1-13,-0.4,-15.6,-32.6,-11.0,-21.8,-39.0,82,73,54,31.04,30.81,3,0,4,0.00
2013-1-14,14.4,-3.3,-17.9,2.0,-10.3,-24.0,82,72,47,30.90,30.58,13,1,14,0.00
2013-1-15,20.9,-1.0,-29.8,6.0,-10.0,-35.0,86,67,43,31.14,30.75,19,3,25,0.00
2013-1-16,28.3,6.3,-8.1,14.0,0.3,-12.0,89,77,47,31.16,30.76,4,0,5,0.01
2013-1-17,35.6,7.4,-5.1,15.0,1.8,-9.0,89,79,42,31.14,30.89,2,0,3,0.00
2013-1-18,28.1,4.0,-10.6,14.0,-1.4,-15.0,87,79,49,31.10,30.85,4,0,5,0.01
2013-1-19,37.2,4.8,-12.9,12.0,-3.1,-17.0,87,72,31,31.19,30.92,4,1,6,0.00
2013-1-20,30.2,2.8,-15.8,6.0,-5.0,-21.0,85,72,33,31.08,30.83,2,0,5,0.00
2013-1-21,41.2,11.0,-7.9,16.0,0.0,-12.0,86,65,28,31.09,30.77,13,2,17,0.00
2013-1-22,38.2,9.6,-6.1,12.0,-0.5,-10.0,86,66,31,30.98,30.71,5,1,7,0.01
2013-1-23,31.1,7.7,-10.1,8.0,-2.7,-17.0,83,65,30,31.12,30.89,4,1,4,0.00
2013-1-24,45.8,23.0,3.0,24.0,12.3,-2.0,87,66,40,30.97,30.52,15,2,27,0.01
2013-1-25,45.9,27.2,15.5,29.0,20.4,12.0,91,77,46,30.55,30.23,5,1,11,0.00
2013-1-26,34.3,24.9,14.9,29.0,22.1,13.0,95,89,71,30.35,30.00,5,1,6,0.02
2013-1-27,41.7,26.5,17.0,31.0,20.7,14.0,95,81,43,30.05,29.93,12,2,20,0.29
2013-1-28,32.7,24.7,4.7,27.0,18.9,0.0,94,79,49,29.95,29.68,15,3,22,0.03
2013-1-29,14.5,3.8,-12.0,7.0,-5.5,-17.0,88,68,42,30.45,29.77,19,4,23,0.00
2013-1-30,29.4,11.4,-14.3,12.0,1.5,-19.0,88,66,46,30.67,30.45,15,4,19,0.00
2013-1-31,39.9,14.5,2.4,14.0,6.2,-1.0,88,73,30,30.66,30.50,5,1,9,0.01
2013-2-1,39.6,10.5,-10.6,10.0,-1.1,-15.0,87,65,22,30.84,30.61,16,2,21,0.00
2013-2-2,31.6,8.9,-8.4,11.0,-0.8,-12.0,86,67,33,31.00,30.79,3,1,5,0.00
2013-2-3,28.6,14.3,-3.3,20.0,6.2,-8.0,83,71,46,30.93,30.47,8,1,14,0.00
2013-2-4,23.3,8.0,-4.7,9.0,-0.3,-9.0,88,71,38,30.59,30.40,6,1,9,0.01
2013-2-5,36.2,15.3,-3.3,15.0,4.6,-9.0,87,65,39,30.58,30.29,7,1,12,0.00
2013-2-6,37.8,16.2,-1.9,20.0,8.0,-6.0,89,72,47,30.44,30.25,9,2,13,0.00
2013-2-7,36.3,14.1,-3.6,15.0,4.1,-7.0,88,67,33,30.60,30.36,4,1,8,0.00
2013-2-8,34.2,20.2,-0.3,22.0,10.4,-4.0,87,68,47,30.52,29.95,17,5,30,0.00
2013-2-9,28.4,17.6,-3.8,17.0,10.6,-8.0,89,75,49,29.95,29.55,16,4,25,0.00
2013-2-10,24.5,4.4,-12.3,9.0,-1.8,-17.0,86,76,47,30.43,29.92,10,1,18,0.00
2013-2-11,27.3,9.6,-8.9,11.0,2.2,-14.0,88,75,33,30.45,30.20,12,2,22,0.00
2013-2-12,26.8,1.3,-22.4,6.0,-8.4,-27.0,83,66,39,30.79,30.45,14,2,18,0.00
2013-2-13,38.6,13.6,-5.6,17.0,2.9,-11.0,81,65,34,30.80,30.38,20,3,24,0.06
2013-2-14,29.8,9.1,-8.6,11.0,-1.9,-13.0,86,64,31,30.75,30.50,15,3,20,0.00
2013-2-15,27.5,6.9,-12.2,6.0,-4.9,-17.0,83,62,35,30.98,30.76,18,4,24,0.00
2013-2-16,41.5,11.6,-10.1,11.0,-3.7,-15.0,85,57,16,31.03,30.67,15,2,24,0.00
2013-2-17,42.0,12.7,-11.1,9.0,-3.6,-16.0,82,54,14,30.67,30.11,17,2,26,0.00
2013-2-18,33.2,16.8,-0.5,14.0,-3.1,-12.0,87,46,15,30.43,30.13,11,4,16,0.00
2013-2-19,37.3,8.0,-15.5,6.0,-6.2,-21.0,78,56,23,30.60,30.25,12,2,20,0.00
2013-2-20,32.9,13.5,1.9,22.0,7.9,-2.0,89,79,57,30.25,29.76,9,1,15,0.01
2013-2-21,30.5,11.9,-0.3,13.0,3.3,-5.0,89,71,44,30.25,29.93,14,2,17,0.04
2013-2-22,24.4,4.4,-11.0,15.0,-2.0,-15.0,86,75,52,30.57,30.24,9,2,13,0.00
2013-2-23,27.8,4.6,-18.7,19.0,-2.8,-24.0,90,73,41,30.67,30.20,10,1,13,0.00
2013-2-24,23.0,11.6,-3.6,14.0,2.1,-9.0,91,67,37,30.32,29.97,15,4,21,0.00
2013-2-25,35.2,12.7,-11.1,3.0,-4.0,-15.0,85,53,22,30.57,30.25,11,3,15,0.01
2013-2-26,21.8,6.6,-12.1,7.0,-4.8,-17.0,82,62,32,30.61,30.13,16,4,25,0.00
2013-2-27,32.9,6.3,-17.0,3.0,-8.1,-22.0,81,56,17,30.85,30.62,13,3,17,0.00
2013-2-28,30.7,9.8,-14.2,7.0,-4.9,-20.0,76,55,27,30.94,30.71,17,4,23,0.00
2013-3-1,37.7,26.4,2.8,17.0,12.1,-3.0,86,56,39,30.82,30.50,22,10,30,0.00
2013-3-2,48.6,25.8,3.7,20.0,11.1,-2.0,85,58,22,30.72,30.43,9,2,16,0.00
2013-3-3,48.4,28.2,7.2,28.0,14.3,3.0,93,62,21,30.44,29.93,18,3,34,0.00
2013-3-4,40.8,27.9,9.6,28.0,18.6,4.0,95,71,34,30.25,29.79,15,4,24,0.06
2013-3-5,45.7,18.2,-6.2,19.0,3.6,-10.0,84,57,24,30.63,30.26,11,2,17,0.00
2013-3-6,45.2,23.8,3.2,19.0,8.8,-1.0,82,57,26,30.55,30.18,17,3,26,0.00
2013-3-7,49.3,27.3,9.3,17.0,9.7,0.0,87,55,13,30.29,30.07,16,3,25,0.00
2013-3-8,38.5,21.9,7.9,28.0,16.4,5.0,94,80,46,30.16,29.86,18,3,21,0.00
2013-3-9,29.5,20.0,8.3,20.0,14.1,3.0,92,78,56,30.19,29.83,13,2,13,0.00
2013-3-10,36.0,17.6,-3.8,11.0,4.1,-7.0,87,59,31,30.52,30.20,13,6,19,0.01
2013-3-11,47.1,22.6,0.1,14.0,6.4,-4.0,86,56,21,30.53,30.23,13,3,23,0.02
2013-3-12,48.3,26.4,6.2,25.0,11.7,2.0,86,58,23,30.49,30.31,14,3,20,0.00
2013-3-13,53.6,28.7,8.0,23.0,14.0,3.0,85,58,25,30.59,30.40,13,2,14,0.00
2013-3-14,54.3,31.4,11.9,24.0,13.9,6.0,82,54,15,30.63,30.37,10,2,15,0.00
2013-3-15,55.5,33.4,14.9,23.0,15.2,10.0,82,54,17,30.45,30.07,17,3,29,0.00
2013-3-16,44.0,29.1,17.2,33.0,21.8,13.0,89,75,44,30.11,29.87,14,2,33,0.06
2013-3-17,42.5,28.9,14.2,29.0,14.5,6.0,90,60,26,30.01,29.78,20,5,32,0.05
2013-3-18,38.3,29.5,17.9,14.0,6.5,1.0,69,40,22,30.10,29.95,20,6,30,0.00
2013-3-19,41.8,26.4,11.4,16.0,8.8,5.0,81,51,22,30.40,30.11,12,3,17,0.00
2013-3-20,44.7,26.3,5.4,28.0,14.2,0.0,89,63,30,30.46,30.06,7,2,17,0.00
2013-3-21,40.6,31.1,19.5,29.0,19.4,8.0,93,66,32,30.05,29.66,15,4,32,0.03
2013-3-22,40.4,24.2,8.3,22.0,5.8,-4.0,77,50,17,29.95,29.74,19,4,33,0.00
2013-3-23,22.2,14.5,2.0,7.0,-0.9,-9.0,74,52,33,30.37,29.77,23,7,27,0.00
2013-3-24,27.6,10.5,-8.0,6.0,-3.8,-13.0,79,56,26,30.52,30.35,18,5,24,0.00
2013-3-25,34.0,15.9,-5.2,5.0,-3.0,-14.0,80,50,12,30.62,30.42,14,3,18,0.00
2013-3-26,45.9,27.8,9.4,19.0,10.6,1.0,76,53,24,30.53,30.13,12,2,25,0.00
2013-3-27,49.5,35.5,20.9,26.0,17.6,10.0,86,53,21,30.16,29.98,12,3,28,0.00
2013-3-28,50.8,35.2,19.0,24.0,16.7,13.0,79,51,22,30.19,30.05,12,3,22,0.00
2013-3-29,52.3,33.0,20.1,27.0,19.6,15.0,86,62,25,30.27,30.11,13,2,29,0.00
2013-3-30,53.1,36.2,19.8,26.0,20.8,16.0,86,59,25,30.28,30.03,17,4,29,0.00
2013-3-31,54.3,37.9,20.1,26.0,18.7,9.0,88,53,19,30.20,29.97,15,4,25,0.00
2013-4-1,52.5,37.3,24.3,28.0,19.2,10.0,84,53,21,30.08,29.82,18,4,30,0.00
2013-4-2,46.8,32.4,17.9,23.0,16.7,11.0,82,56,26,30.02,29.82,16,5,27,0.00
2013-4-3,49.7,34.8,23.8,22.0,17.4,11.0,76,53,21,30.22,30.02,13,4,19,0.00
2013-4-4,57.1,37.8,16.5,22.0,15.4,6.0,83,48,13,30.35,30.08,16,2,17,0.00
2013-4-5,55.0,39.7,24.4,30.0,20.5,9.0,85,51,18,30.11,29.77,18,4,27,0.00
2013-4-6,55.6,40.5,22.0,26.0,17.4,5.0,90,49,15,29.98,29.80,13,3,22,0.00
2013-4-7,51.9,36.8,22.8,25.0,19.0,16.0,85,54,24,29.88,29.70,12,3,25,0.00
2013-4-8,46.6,33.2,20.4,32.0,21.5,15.0,90,65,28,29.77,29.32,16,4,47,0.01
2013-4-9,41.9,28.7,19.5,30.0,25.0,18.0,95,86,56,29.81,29.38,21,3,35,0.20
2013-4-10,33.3,24.8,16.1,18.0,13.2,5.0,93,64,46,30.11,29.82,21,7,23,0.00
2013-4-11,44.0,27.8,11.1,25.0,15.3,5.0,80,61,39,30.13,29.96,22,4,24,0.03
2013-4-12,47.3,32.1,14.5,20.0,15.8,10.0,83,56,26,30.09,29.92,13,4,23,0.00
2013-4-13,50.3,36.4,16.7,31.0,17.1,11.0,85,51,22,30.05,29.56,17,4,39,0.00
2013-4-14,48.4,36.3,27.3,31.0,23.8,16.0,93,65,30,29.62,29.47,18,5,32,0.10
2013-4-15,52.5,41.8,31.4,29.0,23.4,15.0,85,51,26,29.61,29.48,20,6,27,0.00
2013-4-16,54.4,43.6,33.9,24.0,17.5,8.0,61,37,18,29.59,29.41,25,8,37,0.00
2013-4-17,39.4,29.6,16.3,27.0,16.2,4.0,92,60,33,29.90,29.45,18,6,33,0.08
2013-4-18,25.4,17.1,7.3,8.0,1.2,-3.0,79,51,31,30.56,29.91,22,8,26,0.00
2013-4-19,46.7,27.1,6.6,16.0,7.2,-2.0,74,47,22,30.62,30.17,17,4,32,0.00
2013-4-20,41.0,31.8,19.3,31.0,20.4,14.0,84,64,43,30.17,29.91,16,4,18,0.01
2013-4-21,52.2,34.9,16.8,20.0,13.5,-1.0,88,51,12,30.27,30.03,20,4,26,0.00
2013-4-22,56.1,41.4,26.9,30.0,20.0,13.0,91,50,19,30.09,29.69,18,4,38,0.00
2013-4-23,44.9,34.0,20.1,23.0,11.1,-6.0,74,44,12,30.12,29.64,23,8,30,0.00
2013-4-24,49.6,32.8,16.9,15.0,9.2,2.0,80,43,17,30.23,30.12,19,4,35,0.00
2013-4-25,55.3,37.7,20.6,32.0,20.1,14.0,86,55,20,30.23,29.88,16,4,38,0.00
2013-4-26,53.0,38.1,21.8,29.0,20.1,12.0,90,56,21,30.27,30.01,16,3,20,0.00
2013-4-27,57.9,38.8,17.6,20.0,13.4,6.0,87,45,13,30.37,30.12,14,3,22,0.00
2013-4-28,63.1,42.5,18.6,20.0,15.1,6.0,79,41,11,30.21,29.89,13,3,19,0.00
2013-4-29,62.2,37.6,24.2,24.0,20.5,17.0,81,56,18,29.96,29.78,19,3,31,0.00
2013-4-30,64.7,51.3,26.3,26.0,17.3,10.0,82,32,13,29.71,29.54,22,5,29,0.00
2013-5-1,56.3,40.9,27.8,26.0,11.1,-12.0,67,37,6,30.18,29.62,20,7,32,0.00
2013-5-2,48.1,30.0,12.5,11.0,1.9,-9.0,73,38,11,30.42,30.19,14,4,22,0.00
2013-5-3,59.8,43.0,12.6,16.0,9.1,-1.0,78,32,9,30.44,29.94,15,4,22,0.00
2013-5-4,57.1,40.1,18.3,20.0,14.7,5.0,78,41,14,30.01,29.84,13,3,23,0.00
2013-5-5,53.2,41.9,25.7,27.0,21.2,16.0,79,47,23,30.02,29.89,18,4,26,0.00
2013-5-6,47.5,37.0,31.8,38.0,31.7,26.0,95,82,57,30.03,29.84,7,1,12,0.22
2013-5-7,53.2,38.6,29.7,34.0,27.7,23.0,95,69,31,30.04,29.88,15,2,25,0.05
2013-5-8,46.3,35.1,26.3,32.0,26.6,22.0,92,73,40,30.06,29.92,19,4,30,0.08
2013-5-9,50.1,37.7,28.8,31.0,28.2,25.0,90,71,40,30.15,30.00,13,3,22,0.01
2013-5-10,52.6,36.8,22.9,32.0,27.2,21.0,93,72,33,30.35,30.12,18,3,25,0.00
2013-5-11,58.2,39.9,21.3,29.0,24.6,18.0,94,61,22,30.46,30.25,17,2,22,0.00
2013-5-12,63.1,45.6,25.4,32.0,26.3,22.0,90,54,22,30.38,30.11,13,4,24,0.00
2013-5-13,69.1,48.1,27.0,34.0,29.0,22.0,87,53,17,30.26,30.03,20,3,26,0.00
2013-5-14,66.4,46.7,27.8,41.0,33.0,25.0,92,64,26,30.09,29.87,13,3,22,0.00
2013-5-15,62.8,46.0,32.4,43.0,36.5,31.0,94,72,38,29.96,29.77,13,2,17,0.08
2013-5-16,66.5,48.5,25.9,35.0,26.4,20.0,91,51,19,29.98,29.75,17,3,21,0.00
2013-5-17,64.9,47.5,25.4,27.0,17.1,3.0,83,39,9,29.92,29.74,23,5,32,0.00
2013-5-18,57.5,41.6,26.1,29.0,22.8,16.0,78,51,25,29.88,29.72,11,4,24,0.00
2013-5-19,52.3,37.9,23.3,27.0,21.9,15.0,90,58,24,29.93,29.80,26,4,27,0.00
2013-5-20,53.2,38.1,19.4,33.0,23.2,16.0,90,59,30,30.03,29.89,21,5,24,0.00
2013-5-21,60.9,45.2,25.3,28.0,21.5,13.0,87,46,16,30.06,29.79,14,4,26,0.00
2013-5-22,67.2,50.2,28.1,28.0,22.2,14.0,79,39,14,29.86,29.66,22,4,30,0.00
2013-5-23,69.2,49.4,25.6,26.0,19.5,10.0,82,39,10,29.89,29.72,25,5,37,0.00
2013-5-24,67.1,49.7,26.7,22.0,16.8,10.0,72,33,11,29.95,29.82,20,5,36,0.00
2013-5-25,68.6,49.8,24.2,23.0,16.4,8.0,78,35,10,30.02,29.82,25,5,31,0.00
2013-5-26,68.0,49.8,26.5,22.0,15.3,0.0,73,33,7,29.95,29.77,19,5,27,0.00
2013-5-27,66.6,47.7,24.7,20.0,15.3,11.0,69,33,13,29.90,29.66,21,4,28,0.00
2013-5-28,64.0,45.7,23.6,22.0,17.3,12.0,76,38,13,29.79,29.54,23,4,33,0.00
2013-5-29,57.7,43.9,29.7,32.0,22.3,12.0,89,49,18,29.71,29.45,18,4,25,0.00
2013-5-30,60.9,46.4,27.4,33.0,21.8,12.0,92,47,15,29.80,29.71,23,6,33,0.00
2013-5-31,60.7,46.0,26.7,23.0,13.8,2.0,74,34,10,29.98,29.77,20,6,37,0.00
2013-6-1,70.3,47.9,20.1,17.0,7.9,-15.0,70,29,3,30.13,29.92,15,3,21,0.00
2013-6-2,71.9,50.8,24.2,28.0,19.7,14.0,71,34,12,30.06,29.73,16,4,25,0.00
2013-6-3,68.5,47.6,31.2,37.0,28.2,22.0,77,50,18,29.85,29.69,17,3,33,0.00
2013-6-4,71.8,51.2,29.5,36.0,27.1,20.0,83,45,17,29.96,29.77,18,4,29,0.00
2013-6-5,71.5,53.1,29.9,28.0,21.5,11.0,76,37,10,29.94,29.70,14,4,22,0.00
2013-6-6,72.6,51.5,28.0,31.0,24.1,17.0,74,40,13,29.92,29.73,16,3,21,0.00
2013-6-7,71.9,50.7,27.9,31.0,25.7,22.0,85,45,17,29.99,29.72,17,3,25,0.00
2013-6-8,75.9,57.3,30.2,33.0,26.2,21.0,82,37,13,29.82,29.64,20,5,40,0.00
2013-6-9,80.7,58.9,32.0,31.0,22.8,11.0,78,34,8,29.87,29.69,16,4,23,0.00
2013-6-10,82.8,61.2,33.9,30.0,23.8,14.0,72,31,9,29.88,29.64,22,4,36,0.00
2013-6-11,77.7,59.6,34.3,27.0,17.0,5.0,68,27,7,29.86,29.68,18,5,42,0.00
2013-6-12,79.8,59.7,33.4,26.0,20.6,15.0,65,28,9,29.99,29.79,16,4,25,0.00
2013-6-13,73.2,60.4,47.9,34.0,28.4,21.0,41,31,18,29.90,29.71,10,2,19,0.00
2013-6-14,75.5,68.0,48.2,34.0,21.3,10.0,40,18,9,29.82,29.61,19,7,29,0.00
2013-6-15,72.2,54.7,30.2,32.0,24.2,17.0,67,34,12,29.92,29.74,16,3,32,0.00
2013-6-16,70.9,53.1,33.5,42.0,32.3,28.0,81,49,23,30.00,29.82,27,4,37,0.01
2013-6-17,73.0,53.4,33.7,34.0,29.7,25.0,79,46,17,30.05,29.82,21,3,30,0.00
2013-6-18,73.7,54.4,29.8,38.0,26.6,5.0,87,42,7,30.02,29.71,20,4,27,0.00
2013-6-19,74.7,55.1,28.8,19.0,10.6,-3.0,62,25,5,29.82,29.64,23,5,32,0.00
2013-6-20,74.0,55.4,29.1,21.0,14.2,7.0,56,25,8,29.78,29.68,22,5,32,0.00
2013-6-21,69.5,54.0,28.7,22.0,17.8,11.0,65,30,11,29.88,29.70,17,4,38,0.00
2013-6-22,67.7,42.9,32.0,24.0,20.4,17.0,62,43,14,29.83,29.74,8,1,12,0.00
2013-7-1,75.7,66.8,54.6,43.0,32.1,-99.9,62,32,18,29.82,29.72,20,-17,31,0.00
2013-7-2,78.4,60.8,41.9,43.0,37.2,27.0,86,48,15,29.89,29.68,24,6,28,0.00
2013-7-3,79.1,57.8,36.0,41.0,33.9,22.0,88,49,14,29.85,29.61,15,4,26,0.00
2013-7-4,79.0,62.7,42.0,48.0,36.5,28.0,76,43,16,29.77,29.56,10,3,17,0.00
2013-7-5,79.4,61.0,49.2,53.0,46.8,38.0,91,64,25,29.66,29.50,17,3,29,0.02
2013-7-6,76.1,56.5,41.8,50.0,43.7,37.0,93,68,26,29.83,29.67,14,3,20,0.12
2013-7-7,77.7,59.5,46.2,52.0,47.1,43.0,94,68,29,29.85,29.69,17,3,24,0.10
2013-7-8,77.3,59.4,43.2,51.0,45.2,33.0,95,66,23,29.93,29.77,16,3,21,0.11
2013-7-9,81.2,61.7,40.3,47.0,41.0,34.0,94,54,20,30.03,29.82,12,-8,17,0.00
2013-7-10,76.7,60.1,44.9,51.0,43.4,34.0,81,57,23,29.92,29.74,14,2,26,0.20
2013-7-11,81.4,59.3,40.7,50.0,45.1,39.0,96,66,24,29.95,29.64,18,3,22,0.19
2013-7-12,74.0,56.4,46.7,54.0,49.5,44.0,97,79,41,29.86,29.68,14,2,26,0.11
2013-7-13,72.4,59.5,45.7,52.0,48.6,43.0,95,70,37,29.91,29.76,18,3,18,0.04
2013-7-14,75.1,59.9,46.2,52.0,48.5,44.0,95,69,35,29.90,29.72,16,4,23,0.00
2013-7-15,67.3,57.4,47.5,52.0,49.4,46.0,95,76,48,29.83,29.71,12,3,15,0.07
2013-7-16,72.4,58.8,46.3,51.0,44.9,38.0,95,65,34,29.93,29.76,17,4,22,0.00
2013-7-17,78.3,58.8,41.0,49.0,43.8,38.0,92,63,27,30.00,29.77,14,4,24,0.00
2013-7-18,78.8,58.2,42.9,50.0,46.2,41.0,93,68,29,29.93,29.71,14,3,24,0.06
2013-7-19,74.0,55.0,43.5,52.0,47.8,42.0,94,79,37,29.94,29.79,15,2,21,0.08
2013-7-20,79.4,60.2,43.9,52.0,43.4,29.0,97,64,17,29.92,29.65,15,3,20,0.01
2013-7-21,81.8,62.1,44.1,46.0,40.9,28.0,91,53,15,29.75,29.59,10,3,18,0.00
2013-7-22,81.2,60.9,42.0,43.0,39.6,33.0,89,52,18,29.83,29.67,11,2,16,0.00
2013-7-23,82.7,59.8,38.9,45.0,37.3,23.0,86,51,11,29.89,29.74,20,4,26,0.01
2013-7-24,74.4,59.2,47.8,50.0,43.5,32.0,90,60,24,29.89,29.75,18,4,28,0.09
2013-7-25,78.3,62.5,47.6,50.0,43.5,37.0,95,57,24,29.88,29.71,13,3,19,0.02
2013-7-26,79.5,62.7,43.1,46.0,40.3,25.0,89,51,14,29.95,29.75,15,4,22,0.00
2013-7-27,76.9,55.2,41.2,51.0,45.6,39.0,94,73,28,29.90,29.69,11,2,21,0.52
2013-7-28,69.0,55.8,49.7,53.0,48.9,45.0,96,79,46,29.81,29.67,23,3,26,0.12
2013-7-29,71.6,56.2,46.0,50.0,45.8,41.0,96,72,35,29.98,29.77,15,3,25,0.13
2013-7-30,75.2,57.4,37.8,47.0,38.1,29.0,96,57,19,30.13,29.98,15,3,27,0.00
2013-7-31,78.8,60.3,38.3,41.0,36.3,28.0,89,48,16,30.13,29.85,11,3,18,0.00
2013-8-1,69.4,55.8,43.9,51.0,44.7,37.0,94,68,45,29.94,29.78,11,3,21,0.43
2013-8-2,74.2,56.2,45.8,53.0,47.9,44.0,96,76,38,29.94,29.77,16,3,20,0.21
2013-8-3,74.3,55.3,45.9,53.0,47.9,44.0,95,79,35,30.00,29.84,12,2,21,0.32
2013-8-4,72.2,54.4,43.6,53.0,46.2,41.0,97,78,34,30.09,29.90,11,2,24,0.71
2013-8-5,66.7,54.0,47.6,54.0,48.9,45.0,96,84,57,30.02,29.85,15,3,21,0.38
2013-8-6,63.4,53.5,45.1,53.0,46.9,43.0,96,79,58,29.95,29.85,17,3,21,0.23
2013-8-7,56.9,49.0,44.8,50.0,46.2,44.0,96,90,68,29.95,29.86,12,2,22,0.44
2013-8-8,65.6,50.2,44.1,50.0,44.6,42.0,97,82,44,30.02,29.88,15,2,19,0.07
2013-8-9,63.2,50.8,38.9,48.0,42.0,38.0,95,74,45,30.09,29.99,18,3,26,0.04
2013-8-10,69.0,49.5,37.3,47.0,41.2,36.0,95,76,33,30.18,29.96,25,3,31,0.26
2013-8-11,70.2,50.8,40.5,47.0,40.2,34.0,95,72,26,30.20,30.00,11,3,18,0.01
2013-8-12,66.9,50.8,37.9,48.0,43.1,36.0,95,77,42,30.09,29.91,16,2,26,0.24
2013-8-13,68.2,52.7,43.9,51.0,42.8,33.0,95,73,28,30.11,29.95,9,3,17,0.00
2013-8-14,70.7,53.3,36.7,44.0,37.4,31.0,93,61,24,30.12,29.91,14,2,24,0.01
2013-8-15,73.9,54.1,34.5,47.0,35.9,27.0,90,56,18,30.11,29.92,13,2,16,0.00
2013-8-16,76.3,56.2,34.4,41.0,34.5,24.0,89,52,15,30.12,29.91,9,2,11,0.00
2013-8-17,76.6,59.3,40.5,42.0,37.3,28.0,82,50,18,30.05,29.80,11,2,18,0.00
2013-8-18,71.2,55.0,41.7,50.0,43.9,38.0,90,69,38,29.99,29.84,14,2,21,0.06
2013-8-19,75.9,58.0,41.9,50.0,45.1,38.0,94,67,25,30.05,29.85,15,3,22,0.05
2013-8-20,75.9,57.1,43.1,51.0,45.3,38.0,95,68,28,29.93,29.77,15,3,20,0.01
2013-8-21,75.3,54.0,41.2,52.0,44.5,39.0,92,73,27,30.03,29.86,15,2,21,0.29
2013-8-22,77.0,59.3,42.7,52.0,45.3,40.0,95,65,28,30.07,29.80,13,2,17,0.01
2013-8-23,74.6,59.6,46.3,51.0,42.9,33.0,94,60,23,29.88,29.66,18,3,19,0.00
2013-8-24,66.8,56.0,48.0,51.0,46.8,39.0,91,73,48,29.96,29.78,12,2,15,0.18
2013-8-25,62.9,53.6,48.4,53.0,49.7,47.0,95,88,63,30.03,29.94,9,1,12,0.73
2013-8-26,73.0,58.6,49.6,55.0,50.2,44.0,97,77,37,30.06,29.85,11,2,14,0.04
2013-8-27,72.3,55.6,42.2,53.0,47.1,41.0,96,76,40,30.00,29.80,20,2,22,0.07
2013-8-28,76.8,57.3,41.9,52.0,45.9,39.0,96,71,26,29.98,29.80,11,2,17,0.01
2013-8-29,75.5,57.7,40.6,52.0,45.2,39.0,96,68,27,30.05,29.90,13,2,18,0.00
2013-8-30,75.8,58.6,48.3,54.0,47.0,41.0,93,69,29,30.00,29.79,14,2,22,0.06
2013-8-31,72.7,57.3,44.4,53.0,46.6,43.0,95,71,35,29.94,29.80,14,2,20,0.01
2013-9-1,76.4,58.0,40.0,51.0,45.3,35.0,95,67,23,29.98,29.77,12,2,22,0.00
2013-9-2,74.2,57.5,47.1,50.0,47.0,41.0,91,71,32,29.93,29.78,11,2,19,0.00
2013-9-3,75.1,56.1,39.0,51.0,44.7,38.0,96,69,33,30.04,29.90,9,2,16,0.00
2013-9-4,75.4,60.0,47.0,52.0,46.8,42.0,91,65,32,30.02,29.86,12,2,18,0.00
2013-9-5,77.5,59.0,42.4,50.0,44.9,41.0,95,64,28,30.04,29.87,20,3,22,0.00
2013-9-6,78.8,56.3,37.2,45.0,40.8,35.0,94,63,23,30.08,29.82,11,2,17,0.00
2013-9-7,76.7,55.9,38.0,50.0,42.3,37.0,95,66,27,30.02,29.80,19,3,21,0.00
2013-9-8,75.4,57.5,41.6,50.0,43.6,36.0,94,65,25,29.91,29.64,15,2,19,0.00
2013-9-9,67.9,52.5,39.6,50.0,43.9,37.0,94,75,41,29.80,29.64,17,2,32,0.19
2013-9-10,54.0,49.5,46.5,50.0,47.4,46.0,96,92,82,29.93,29.78,7,1,11,0.56
2013-9-11,67.9,54.5,44.9,52.0,46.3,41.0,96,77,40,29.94,29.83,12,3,16,0.02
2013-9-12,66.7,50.8,38.1,50.0,44.7,37.0,95,81,50,30.02,29.80,14,2,23,0.37
2013-9-13,63.9,52.3,44.8,50.0,44.7,42.0,95,77,48,29.91,29.70,9,3,15,0.59
2013-9-14,58.0,48.4,43.0,49.0,44.2,42.0,96,86,63,29.89,29.73,13,1,24,0.46
2013-9-15,61.7,50.1,42.6,49.0,43.6,41.0,95,80,54,29.99,29.87,8,2,12,0.10
2013-9-16,64.4,49.9,39.9,51.0,43.9,38.0,95,82,48,30.07,29.87,10,2,18,0.12
2013-9-17,65.3,49.8,35.4,50.0,42.3,34.0,97,78,46,30.05,29.78,13,2,23,0.01
2013-9-18,67.3,50.9,44.1,50.0,45.2,41.0,97,83,42,29.83,29.64,13,3,25,0.54
2013-9-19,67.1,49.6,40.2,50.0,41.1,37.0,95,76,34,29.92,29.78,13,3,19,0.00
2013-9-20,67.1,49.2,32.2,43.0,36.4,27.0,95,67,24,30.04,29.81,10,2,15,0.00
2013-9-21,66.1,48.8,32.6,45.0,37.2,31.0,94,68,36,30.00,29.75,13,2,19,0.00
2013-9-22,53.4,43.7,33.2,46.0,40.7,32.0,96,89,66,29.76,29.42,26,3,29,0.90
2013-9-23,52.0,41.5,32.0,35.0,30.5,26.0,94,68,37,30.15,29.60,21,5,34,0.03
2013-9-24,65.8,41.8,23.7,36.0,26.4,22.0,92,61,20,30.28,29.99,14,2,22,0.00
2013-9-25,61.9,46.5,26.2,37.0,29.3,24.0,93,57,31,30.01,29.61,19,4,27,0.00
2013-9-26,59.5,50.7,35.4,31.0,24.6,18.0,67,38,21,29.66,29.52,20,5,27,0.00
2013-9-27,51.7,40.1,27.7,38.0,30.2,19.0,93,70,38,29.98,29.49,17,4,26,0.57
2013-9-28,59.4,37.6,19.7,30.0,22.9,16.0,91,61,26,30.30,29.99,11,2,17,0.00
2013-9-29,63.6,41.6,23.2,32.0,25.5,20.0,91,60,19,30.27,29.98,11,2,18,0.00
2013-9-30,69.4,46.4,26.5,39.0,30.4,23.0,89,59,28,30.10,29.79,13,2,16,0.00
2013-10-1,68.2,46.1,27.2,36.0,29.4,24.0,92,59,21,30.03,29.80,14,3,21,0.00
2013-10-2,63.7,43.6,24.1,31.0,25.8,21.0,90,56,21,30.04,29.79,16,3,19,0.00
2013-10-3,57.5,43.0,24.8,32.0,26.7,22.0,90,57,30,29.91,29.61,22,4,28,0.00
2013-10-4,47.0,34.9,23.7,30.0,12.7,-3.0,82,45,15,30.17,29.59,25,8,31,0.00
2013-10-5,50.2,33.8,21.3,18.0,9.6,-2.0,69,41,13,30.41,30.18,21,6,31,0.00
2013-10-6,63.3,37.9,16.0,24.0,15.6,5.0,78,47,16,30.48,30.24,13,2,15,0.00
2013-10-7,68.0,41.9,21.0,30.0,23.7,18.0,90,56,18,30.36,30.00,12,2,15,0.00
2013-10-8,35.2,32.6,30.4,25.0,24.7,24.0,76,72,66,30.09,30.07,3,1,5,0.00
2013-10-9,55.1,40.1,22.1,34.0,24.4,20.0,92,60,26,29.93,29.82,22,4,34,0.01
2013-10-10,45.1,33.5,20.0,35.0,29.1,18.0,95,85,60,29.89,29.53,20,3,33,0.50
2013-10-11,44.8,28.3,11.3,32.0,21.5,9.0,94,77,50,30.27,29.89,9,1,12,0.34
2013-10-12,50.0,31.2,16.7,28.0,21.1,14.0,90,70,32,30.35,30.15,6,2,10,0.00
2013-10-13,53.4,37.2,25.4,38.0,30.8,23.0,93,80,44,30.27,29.93,14,3,20,0.15
2013-10-14,45.5,37.4,26.8,27.0,21.2,18.0,80,54,35,30.08,29.88,18,5,25,0.00
2013-10-15,25.6,24.1,23.3,19.0,17.9,17.0,78,77,74,30.11,30.09,5,3,7,0.00
2013-10-16,45.3,28.7,13.1,26.0,18.1,10.0,94,68,34,30.28,30.11,10,1,16,0.19
2013-10-17,49.9,28.1,10.7,24.0,14.7,7.0,88,62,20,30.36,30.08,13,2,18,0.00
2013-10-18,42.5,28.4,17.4,21.0,13.3,8.0,87,58,26,30.38,30.13,16,4,22,0.00
2013-10-19,52.8,30.8,13.1,19.0,13.9,8.0,83,55,21,30.41,30.18,12,2,16,0.00
2013-10-20,52.2,32.3,16.4,21.0,17.3,12.0,86,59,21,30.23,29.95,14,3,20,0.00
2013-10-21,50.8,33.3,18.9,23.0,14.8,8.0,87,54,18,30.32,30.13,11,3,17,0.00
2013-10-22,24.0,23.0,21.5,16.0,15.0,14.0,74,71,70,30.37,30.33,2,0,4,0.00
2013-10-23,61.2,36.9,19.2,25.0,20.9,13.0,89,60,16,30.35,30.09,8,1,11,0.00
2013-10-24,58.3,38.8,20.6,28.0,22.6,17.0,88,57,25,30.33,30.11,10,2,17,0.00
2013-10-25,44.1,35.8,31.6,37.0,30.9,26.0,96,83,64,30.27,30.07,9,2,12,0.25
2013-10-26,52.9,36.1,29.5,38.0,30.4,26.0,96,82,37,30.43,30.27,5,1,10,0.23
2013-10-27,52.2,34.8,22.4,31.0,26.1,21.0,93,74,37,30.31,29.93,10,2,16,0.00
2013-10-28,48.7,37.0,25.7,30.0,24.6,19.0,94,65,35,29.98,29.82,13,4,26,0.01
2013-10-29,36.9,36.1,34.9,23.0,20.5,19.0,62,54,50,29.93,29.91,3,1,6,0.00
2013-10-30,32.6,20.6,6.2,24.0,15.1,4.0,92,80,50,30.18,29.89,8,2,16,0.08
2013-10-31,39.0,22.0,6.0,23.0,13.9,4.0,91,73,45,30.39,30.18,15,3,20,0.11
2013-11-1,42.5,28.3,16.0,23.0,16.3,12.0,90,65,37,30.47,30.32,13,4,20,0.00
2013-11-2,57.0,29.9,12.5,22.0,15.6,9.0,86,61,19,30.55,30.15,7,1,9,0.00
2013-11-3,44.1,30.5,19.6,27.0,20.8,15.0,87,69,42,30.16,29.77,18,2,27,0.00
2013-11-4,42.5,29.2,15.2,28.0,18.9,11.0,95,69,34,30.06,29.90,11,2,24,0.00
2013-11-5,28.9,19.2,4.0,28.0,15.8,-3.0,95,86,70,30.46,29.89,3,0,6,0.06
2013-11-6,40.7,18.6,-2.3,18.0,6.2,-6.0,86,62,29,30.83,30.46,13,2,19,0.00
2013-11-7,52.3,27.7,11.1,25.0,15.7,8.0,87,64,30,30.84,30.43,14,2,18,0.00
2013-11-8,53.9,32.6,17.9,21.0,16.7,13.0,84,59,20,30.43,30.07,15,2,21,0.00
2013-11-9,56.8,32.3,16.4,26.0,18.3,13.0,88,61,21,30.40,30.19,6,1,9,0.00
2013-11-10,55.2,32.5,17.3,22.0,17.8,13.0,86,60,19,30.52,30.28,9,2,16,0.00
2013-11-11,53.0,31.6,15.9,20.0,16.6,12.0,86,60,22,30.62,30.38,7,1,14,0.00
2013-11-12,23.7,22.7,21.8,17.0,16.0,15.0,78,75,72,30.64,30.62,3,1,4,0.00
2013-11-13,49.1,30.7,14.7,24.0,18.0,11.0,86,63,27,30.65,30.24,7,1,8,0.00
2013-11-14,48.7,32.0,20.5,23.0,18.6,7.0,88,64,18,30.23,29.95,16,2,18,0.00
2013-11-15,40.3,27.6,16.7,29.0,21.7,13.0,95,80,44,29.97,29.70,10,1,22,0.00
2013-11-16,32.3,29.5,27.9,27.0,24.7,22.0,93,83,65,29.80,29.65,19,7,33,0.10
2013-11-17,47.7,29.0,12.8,24.0,17.9,9.0,86,65,38,30.34,29.80,14,3,27,0.14
2013-11-18,44.6,18.5,2.0,18.0,9.9,-1.0,91,73,34,30.63,30.34,2,0,3,0.00
2013-11-19,25.0,18.6,13.0,20.0,15.0,10.0,91,86,82,30.54,30.13,1,0,3,0.00
2013-11-20,40.6,28.3,15.8,29.0,22.5,13.0,95,80,51,30.14,29.89,11,1,17,0.00
2013-11-21,42.9,30.7,26.3,31.0,26.8,22.0,95,86,50,30.19,29.98,4,0,10,0.06
2013-11-22,30.8,28.2,25.2,29.0,27.0,23.0,96,94,90,30.38,30.17,12,2,15,0.00
2013-11-23,29.5,25.9,22.4,26.0,23.4,21.0,93,90,83,30.45,30.31,15,9,21,0.00
2013-11-24,33.9,24.0,17.8,24.0,20.5,16.0,94,87,65,30.34,30.07,9,1,14,0.05
2013-11-25,38.9,25.7,9.0,22.0,16.5,6.0,91,70,45,30.46,30.06,17,5,23,0.03
2013-11-26,8.8,6.7,5.2,6.0,3.6,2.0,90,88,83,30.88,30.47,2,0,3,0.00
2013-11-27,33.2,8.4,-4.8,17.0,3.2,-8.0,91,80,46,30.94,30.67,2,0,4,0.00
2013-11-28,31.3,10.2,-1.4,16.0,5.2,-5.0,90,81,51,30.88,30.67,2,0,4,0.00
2013-11-29,33.5,9.6,-4.8,17.0,4.1,-8.0,91,80,48,30.93,30.74,4,0,5,0.00
2013-11-30,36.3,8.7,-5.1,17.0,3.7,-9.0,89,81,43,30.98,30.72,3,0,4,0.00
2013-12-1,34.5,12.3,-4.6,16.0,5.2,-8.0,88,75,43,30.93,30.64,8,1,13,0.00
2013-12-2,45.4,22.8,4.6,22.0,12.0,1.0,91,68,31,30.63,30.02,12,2,27,0.01
2013-12-3,26.7,22.0,17.5,25.0,17.1,10.0,94,81,69,30.02,29.59,2,1,6,0.00
2013-12-4,30.0,20.4,-9.4,25.0,13.7,-14.0,94,76,44,29.97,29.42,13,4,27,0.00
2013-12-5,18.6,-7.0,-23.4,0.0,-13.4,-28.0,84,75,41,30.63,29.98,9,1,17,0.00
2013-12-6,22.3,-5.8,-21.7,3.0,-12.8,-27.0,84,73,40,30.86,30.62,8,1,18,0.00
2013-12-7,19.5,6.1,-12.1,12.0,0.4,-16.0,90,78,51,30.85,30.12,6,1,14,0.00
2013-12-8,15.0,5.5,-18.3,12.0,-6.2,-24.0,90,61,30,30.40,30.01,21,5,31,0.00
2013-12-9,11.7,-13.1,-30.7,-10.0,-22.1,-37.0,81,66,35,31.37,30.41,13,2,15,0.00
2013-12-10,-5.6,-15.1,-21.8,-9.0,-19.7,-26.0,84,79,75,31.42,31.25,1,0,2,0.00
2013-12-11,22.8,-1.1,-13.6,8.0,-6.9,-18.0,86,77,48,31.35,31.16,2,0,4,0.00
2013-12-12,22.2,-0.0,-14.6,7.0,-5.9,-19.0,88,77,50,31.39,30.94,3,0,4,0.00
2013-12-13,35.0,9.6,-9.0,14.0,0.7,-13.0,87,70,36,30.93,30.50,10,2,14,0.00
2013-12-14,30.9,10.2,-3.2,10.0,0.5,-7.0,84,66,41,30.90,30.64,11,2,15,0.00
2013-12-15,46.5,21.2,-2.1,18.0,7.8,-6.0,87,60,27,30.90,30.62,19,4,27,0.00
2013-12-16,43.7,19.2,3.6,19.0,8.4,-1.0,87,65,35,30.82,30.62,15,2,20,0.00
2013-12-17,10.0,8.0,5.5,5.0,2.5,0.0,82,78,73,30.89,30.81,2,0,5,0.00
2013-12-18,31.3,15.7,-1.8,19.0,7.6,-6.0,88,72,48,30.88,30.31,4,1,6,0.00
2013-12-19,37.4,19.4,5.0,22.0,12.4,2.0,92,76,47,30.31,29.94,8,2,16,0.00
2013-12-20,33.8,17.5,6.5,25.0,12.8,2.0,92,82,54,30.02,29.82,14,1,16,0.01
2013-12-21,25.8,9.5,-8.0,13.0,2.0,-12.0,88,73,50,30.27,29.93,13,2,17,0.00
2013-12-22,27.9,8.5,-6.4,6.0,-2.3,-11.0,83,64,29,30.75,30.27,13,2,17,0.00
2013-12-23,35.5,11.3,-6.2,14.0,1.7,-11.0,85,68,36,30.93,30.74,11,1,15,0.00
2013-12-24,7.4,4.5,0.9,0.0,-1.6,-3.0,87,77,66,30.87,30.75,6,2,8,0.00
2013-12-25,29.9,5.2,-9.5,4.0,-5.4,-15.0,79,64,32,30.98,30.78,9,2,13,0.00
2013-12-26,29.8,10.0,-7.8,13.0,0.4,-12.0,82,67,45,31.01,30.80,4,1,7,0.00
2013-12-27,39.3,10.8,-2.6,17.0,4.4,-6.0,89,77,40,31.00,30.69,3,0,4,0.00
2013-12-28,32.3,13.5,-1.2,20.0,8.2,-5.0,91,80,55,30.74,30.34,3,0,6,0.00
2013-12-29,33.4,17.7,-0.7,20.0,7.1,-9.0,92,65,34,30.48,30.26,9,2,12,0.00
2013-12-30,37.5,9.8,-6.4,16.0,-7.3,-99.9,81,60,39,30.83,30.49,5,-74,7,0.00
2013-12-31,14.4,6.3,-0.9,11.0,2.1,-6.0,87,83,79,30.82,30.55,2,0,3,0.00
2014-1-1,33.0,20.0,2.6,17.0,5.9,-8.0,91,59,29,30.63,30.37,17,6,24,0.00
2014-1-2,31.6,10.2,-4.7,10.0,-0.5,-12.0,82,64,35,30.82,30.63,3,0,6,0.00